EZY13FR EHAM-EGGW

Flight info

Callsign EZY13FR
Flight time N/A
Altitude 24000
Route IDRID M40 RINIS
Aircraft A20N/M-SDE2E3FGHIRWXY/LB1

Departure

Time 2026-04-27 18:04
Airport Amsterdam Airport Schiphol (EHAM)

Arrival

Time N/A
Airport London Luton Airport (EGGW)
Time Latitude Longitude Altitude Speed Heading
2026-04-27 17:32 52.31003 4.75411 -1 ft 0 kts 148°
2026-04-27 17:47 52.31016 4.75398 -2 ft 3 kts 153°
2026-04-27 17:48 52.31039 4.75379 -2 ft 4 kts 121°
2026-04-27 17:48 52.31039 4.75349 -2 ft 4 kts 69°
2026-04-27 17:48 52.31037 4.75342 -2 ft 0 kts 70°
2026-04-27 17:52 52.31038 4.75343 -2 ft 1 kts 70°
2026-04-27 17:52 52.31044 4.75367 -2 ft 3 kts 64°
2026-04-27 17:52 52.31067 4.75424 -2 ft 6 kts 53°
2026-04-27 17:53 52.31078 4.75448 -2 ft 2 kts 51°
2026-04-27 17:53 52.31110 4.75478 -2 ft 9 kts
2026-04-27 17:53 52.31198 4.75466 -2 ft 13 kts 354°
2026-04-27 17:53 52.31282 4.75455 -2 ft 13 kts 356°
2026-04-27 17:54 52.31381 4.75444 -2 ft 14 kts 356°
2026-04-27 17:54 52.31481 4.75419 -1 ft 15 kts 323°
2026-04-27 17:54 52.31505 4.75266 -2 ft 16 kts 266°
2026-04-27 17:54 52.31500 4.75070 -1 ft 19 kts 268°
2026-04-27 17:55 52.31494 4.74839 -1 ft 22 kts 268°
2026-04-27 17:55 52.31485 4.74622 -1 ft 15 kts 267°
2026-04-27 17:55 52.31479 4.74469 -1 ft 15 kts 262°
2026-04-27 17:55 52.31503 4.74306 -1 ft 15 kts 319°
2026-04-27 17:56 52.31539 4.74298 -1 ft 2 kts 13°
2026-04-27 17:56 52.31642 4.74305 -1 ft 28 kts
2026-04-27 17:56 52.31784 4.74321 -1 ft 21 kts
2026-04-27 17:56 52.31933 4.74331 -1 ft 22 kts
2026-04-27 17:57 52.32026 4.74224 -1 ft 13 kts 276°
2026-04-27 17:57 52.32038 4.74045 -2 ft 19 kts 274°
2026-04-27 17:57 52.32047 4.73819 -1 ft 18 kts 270°
2026-04-27 17:57 52.32053 4.73588 -1 ft 22 kts 273°
2026-04-27 17:58 52.32100 4.73350 -1 ft 22 kts 313°
2026-04-27 17:58 52.32210 4.73189 -1 ft 22 kts 317°
2026-04-27 17:58 52.32329 4.73017 -1 ft 24 kts 316°
2026-04-27 17:58 52.32444 4.72855 -1 ft 21 kts 320°
2026-04-27 17:59 52.32555 4.72704 -1 ft 22 kts 320°
2026-04-27 17:59 52.32672 4.72531 -1 ft 23 kts 306°
2026-04-27 17:59 52.32784 4.72336 -1 ft 24 kts 315°
2026-04-27 17:59 52.32879 4.72151 -1 ft 20 kts 312°
2026-04-27 18:00 52.32968 4.71984 -1 ft 18 kts 311°
2026-04-27 18:00 52.33047 4.71828 -1 ft 19 kts 313°
2026-04-27 18:00 52.33132 4.71672 -1 ft 17 kts 307°
2026-04-27 18:00 52.33136 4.71514 -1 ft 14 kts 237°
2026-04-27 18:01 52.33062 4.71395 -1 ft 16 kts 223°
2026-04-27 18:01 52.32966 4.71265 -1 ft 20 kts 218°
2026-04-27 18:01 52.32883 4.71135 -1 ft 16 kts 236°
2026-04-27 18:01 52.32871 4.70972 -3 ft 14 kts 290°
2026-04-27 18:02 52.32927 4.70908 -3 ft 8 kts 347°
2026-04-27 18:02 52.32965 4.70903 -3 ft 0 kts
2026-04-27 18:03 52.33111 4.70915 -4 ft 55 kts
2026-04-27 18:03 52.33713 4.70976 0 ft 116 kts
2026-04-27 18:03 52.34677 4.71049 234 ft 150 kts
2026-04-27 18:04 52.35745 4.71027 1123 ft 154 kts
2026-04-27 18:04 52.36811 4.71114 2071 ft 152 kts
2026-04-27 18:04 52.37915 4.71262 2541 ft 169 kts
2026-04-27 18:04 52.39179 4.71437 2850 ft 198 kts
2026-04-27 18:05 52.40597 4.71604 3116 ft 214 kts
2026-04-27 18:05 52.42081 4.71743 3366 ft 214 kts 359°
2026-04-27 18:05 52.43540 4.71071 3663 ft 229 kts 327°
2026-04-27 18:05 52.44715 4.69277 4656 ft 233 kts 316°
2026-04-27 18:06 52.45867 4.67241 5411 ft 253 kts 306°
2026-04-27 18:06 52.46579 4.64552 6248 ft 266 kts 282°
2026-04-27 18:06 52.46675 4.61500 7292 ft 270 kts 271°
2026-04-27 18:06 52.46690 4.58417 8391 ft 271 kts 271°
2026-04-27 18:07 52.46538 4.55336 9454 ft 274 kts 254°
2026-04-27 18:07 52.45641 4.52594 10425 ft 279 kts 229°
2026-04-27 18:07 52.44085 4.50578 11099 ft 295 kts 214°
2026-04-27 18:07 52.42440 4.48391 11527 ft 316 kts 227°
2026-04-27 18:08 52.41106 4.45419 12014 ft 331 kts 242°
2026-04-27 18:08 52.40035 4.42051 12894 ft 335 kts 243°
2026-04-27 18:08 52.38941 4.38646 13792 ft 340 kts 243°
2026-04-27 18:08 52.37840 4.35253 14626 ft 344 kts 243°
2026-04-27 18:09 52.36709 4.31787 15454 ft 346 kts 243°
2026-04-27 18:09 52.35570 4.28303 16302 ft 349 kts 243°
2026-04-27 18:09 52.34424 4.24806 17139 ft 351 kts 243°
2026-04-27 18:09 52.33282 4.21324 17941 ft 354 kts 243°
2026-04-27 18:10 52.32115 4.17769 18727 ft 356 kts 243°
2026-04-27 18:10 52.30798 4.14326 19461 ft 359 kts 236°
2026-04-27 18:10 52.29260 4.11083 20186 ft 361 kts 234°
2026-04-27 18:10 52.27709 4.07850 20919 ft 363 kts 234°
2026-04-27 18:11 52.26150 4.04591 21624 ft 365 kts 234°
2026-04-27 18:11 52.24585 4.01318 22335 ft 367 kts 234°
2026-04-27 18:11 52.23014 3.98033 22909 ft 368 kts 234°
2026-04-27 18:11 52.21435 3.94739 23488 ft 370 kts 234°
2026-04-27 18:12 52.19840 3.91414 24006 ft 373 kts 234°
2026-04-27 18:12 52.18240 3.88082 24187 ft 374 kts 234°
2026-04-27 18:12 52.16636 3.84749 24236 ft 374 kts 234°
2026-04-27 18:12 52.15031 3.81417 24239 ft 373 kts 234°
2026-04-27 18:13 52.13522 3.78290 24238 ft 374 kts 234°
2026-04-27 18:13 52.11917 3.74965 24239 ft 373 kts 234°
2026-04-27 18:13 52.10311 3.71642 24237 ft 373 kts 234°
2026-04-27 18:13 52.08704 3.68323 24236 ft 373 kts 234°
2026-04-27 18:14 52.07098 3.65012 24242 ft 373 kts 234°
2026-04-27 18:14 52.05493 3.61705 24239 ft 373 kts 234°
2026-04-27 18:14 52.03885 3.58396 24239 ft 373 kts 234°
2026-04-27 18:14 52.02274 3.55086 24237 ft 373 kts 234°
2026-04-27 18:15 52.00804 3.51635 24241 ft 371 kts 242°
2026-04-27 18:15 51.99726 3.47852 24242 ft 369 kts 251°
2026-04-27 18:15 51.99058 3.43836 24241 ft 369 kts 259°
2026-04-27 18:15 51.98680 3.39716 24242 ft 369 kts 261°
2026-04-27 18:16 51.98304 3.35605 24244 ft 369 kts 261°
2026-04-27 18:16 51.97920 3.31494 24244 ft 368 kts 261°
2026-04-27 18:16 51.97532 3.27390 24244 ft 368 kts 261°
2026-04-27 18:16 51.97141 3.23287 24243 ft 368 kts 261°
2026-04-27 18:17 51.96749 3.19194 24241 ft 368 kts 261°
2026-04-27 18:17 51.96367 3.15092 24241 ft 367 kts 262°
2026-04-27 18:17 51.96081 3.10977 24242 ft 368 kts 264°
2026-04-27 18:17 51.95839 3.06852 24240 ft 367 kts 264°
2026-04-27 18:18 51.95598 3.02730 24241 ft 367 kts 264°
2026-04-27 18:18 51.95343 2.98561 24242 ft 367 kts 263°
2026-04-27 18:18 51.95081 2.94446 24239 ft 367 kts 263°
2026-04-27 18:18 51.94813 2.90339 24103 ft 367 kts 263°
2026-04-27 18:19 51.94545 2.86288 23868 ft 365 kts 263°
2026-04-27 18:19 51.94270 2.82168 23602 ft 362 kts 263°
2026-04-27 18:19 51.93997 2.78113 23319 ft 361 kts 263°
2026-04-27 18:19 51.93724 2.74073 23032 ft 361 kts 263°
2026-04-27 18:20 51.93450 2.70030 22776 ft 360 kts 263°
2026-04-27 18:20 51.93176 2.66005 22505 ft 359 kts 263°
2026-04-27 18:20 51.92902 2.61997 22281 ft 357 kts 263°
2026-04-27 18:20 51.92631 2.58050 22241 ft 357 kts 263°
2026-04-27 18:21 51.92354 2.54047 22244 ft 358 kts 263°
2026-04-27 18:21 51.92076 2.50036 22243 ft 358 kts 263°
2026-04-27 18:21 51.91797 2.46035 22244 ft 358 kts 263°
2026-04-27 18:21 51.91517 2.42033 22247 ft 358 kts 263°
2026-04-27 18:22 51.91235 2.38033 22245 ft 358 kts 263°
2026-04-27 18:22 51.90952 2.34038 22247 ft 357 kts 263°
2026-04-27 18:22 51.90758 2.30024 22092 ft 358 kts 267°
2026-04-27 18:22 51.90671 2.25980 21559 ft 360 kts 268°
2026-04-27 18:23 51.90584 2.21964 21179 ft 354 kts 268°
2026-04-27 18:23 51.90495 2.17992 20790 ft 352 kts 268°
2026-04-27 18:23 51.90404 2.14027 20406 ft 353 kts 268°
2026-04-27 18:23 51.90309 2.10054 20010 ft 353 kts 268°
2026-04-27 18:24 51.90212 2.06079 19623 ft 353 kts 268°
2026-04-27 18:24 51.90113 2.02114 19229 ft 352 kts 268°
2026-04-27 18:24 51.90013 1.98162 18842 ft 351 kts 269°
2026-04-27 18:24 51.89912 1.94223 18452 ft 351 kts 269°
2026-04-27 18:25 51.90107 1.90313 18129 ft 348 kts 283°
2026-04-27 18:25 51.90955 1.86660 17806 ft 348 kts 298°
2026-04-27 18:25 51.92377 1.83479 17489 ft 349 kts 309°
2026-04-27 18:25 51.93941 1.80484 17168 ft 348 kts 309°
2026-04-27 18:26 51.95498 1.77493 16853 ft 346 kts 309°
2026-04-27 18:26 51.97045 1.74508 16541 ft 345 kts 309°